• In Germany
  • List of Countries
  • For 7 days
  • Water Temperature
  • Satellite Maps
  • Weather Map
  • Weather Widgets
  • user-avatar
    Login

    Hourly Weather Brisbane

    Today, 17 July, Tuesday

    Time Temperature Precipitation Wind Pressure Humidity
    00:00 +12°C° 0 mm 3 mps 761 mmHg 47%
    01:00 +11°C° 0 mm 3 mps 761 mmHg 48%
    02:00 +10°C° 0 mm 3 mps 761 mmHg 48%
    03:00 +10°C° 0 mm 3 mps 761 mmHg 48%
    04:00 +10°C° 0 mm 3 mps 761 mmHg 44%
    05:00 +9°C° 0 mm 3 mps 762 mmHg 43%
    06:00 +9°C° 0 mm 2 mps 762 mmHg 43%
    07:00 +9°C° 0 mm 2 mps 762 mmHg 42%
    08:00 +13°C° 0 mm 2 mps 763 mmHg 36%
    09:00 +17°C° 0 mm 2 mps 763 mmHg 30%
    10:00 +22°C° 0 mm 1 mps 763 mmHg 21%
    11:00 +23°C° 0 mm 1 mps 762 mmHg 20%
    12:00 +24°C° 0 mm 1 mps 762 mmHg 18%
    13:00 +26°C° 0 mm 1 mps 762 mmHg 17%
    14:00 +25°C° 0 mm 1 mps 762 mmHg 20%
    15:00 +24°C° 0 mm 1 mps 761 mmHg 22%
    16:00 +23°C° 0 mm 2 mps 761 mmHg 25%
    17:00 +20°C° 0 mm 2 mps 762 mmHg 32%
    18:00 +17°C° 0 mm 2 mps 762 mmHg 39%
    19:00 +15°C° 0 mm 1 mps 762 mmHg 46%
    20:00 +14°C° 0 mm 1 mps 763 mmHg 48%
    21:00 +14°C° 0 mm 1 mps 763 mmHg 51%
    22:00 +13°C° 0 mm 1 mps 763 mmHg 53%
    23:00 +13°C° 0 mm 2 mps 763 mmHg 52%

    Tomorrow, 18 July, Wednesday

    Time Temperature Precipitation Wind Pressure Humidity
    00:00 +12°C° 0 mm 2 mps 763 mmHg 51%
    01:00 +12°C° 0 mm 2 mps 763 mmHg 51%
    02:00 +10°C° 0 mm 2 mps 763 mmHg 50%
    03:00 +10°C° 0 mm 2 mps 763 mmHg 48%
    04:00 +10°C° 0 mm 2 mps 763 mmHg 47%
    05:00 +10°C° 0 mm 2 mps 764 mmHg 47%
    06:00 +10°C° 0 mm 2 mps 764 mmHg 47%
    07:00 +10°C° 0 mm 2 mps 764 mmHg 47%
    08:00 +14°C° 0 mm 2 mps 764 mmHg 41%
    09:00 +17°C° 0 mm 2 mps 764 mmHg 34%
    10:00 +22°C° 0 mm 1 mps 765 mmHg 27%
    11:00 +23°C° 0 mm 1 mps 764 mmHg 24%
    12:00 +25°C° 0 mm 1 mps 764 mmHg 21%
    13:00 +27°C° 0 mm 1 mps 763 mmHg 19%
    14:00 +26°C° 0 mm 1 mps 763 mmHg 21%
    15:00 +25°C° 0 mm 1 mps 763 mmHg 24%
    16:00 +24°C° 0 mm 2 mps 763 mmHg 27%
    17:00 +21°C° 0 mm 2 mps 763 mmHg 34%
    18:00 +18°C° 0 mm 2 mps 763 mmHg 41%
    19:00 +16°C° 0 mm 2 mps 764 mmHg 48%
    20:00 +15°C° 0 mm 2 mps 764 mmHg 50%
    21:00 +15°C° 0 mm 1 mps 764 mmHg 52%
    22:00 +14°C° 0 mm 1 mps 765 mmHg 55%
    23:00 +13°C° 0 mm 1 mps 765 mmHg 55%

    Day after tomorrow, 19 July, Thursday

    Time Temperature Precipitation Wind Pressure Humidity
    00:00 +13°C° 0 mm 1 mps 764 mmHg 55%
    01:00 +12°C° 0 mm 2 mps 764 mmHg 55%
    02:00 +12°C° 0 mm 2 mps 764 mmHg 54%
    03:00 +12°C° 0 mm 2 mps 764 mmHg 53%
    04:00 +10°C° 0 mm 2 mps 764 mmHg 52%
    05:00 +10°C° 0 mm 2 mps 764 mmHg 52%
    06:00 +10°C° 0 mm 2 mps 765 mmHg 52%
    07:00 +10°C° 0 mm 2 mps 765 mmHg 52%
    08:00 +14°C° 0 mm 2 mps 765 mmHg 46%
    09:00 +18°C° 0 mm 2 mps 765 mmHg 39%
    10:00 +22°C° 0 mm 1 mps 765 mmHg 32%
    11:00 +23°C° 0 mm 2 mps 764 mmHg 30%
    12:00 +24°C° 0 mm 2 mps 763 mmHg 28%
    13:00 +25°C° 0 mm 2 mps 762 mmHg 26%
    14:00 +25°C° 0 mm 3 mps 762 mmHg 29%
    15:00 +24°C° 0 mm 3 mps 762 mmHg 33%
    16:00 +23°C° 0 mm 4 mps 761 mmHg 37%
    17:00 +21°C° 0 mm 4 mps 761 mmHg 47%
    18:00 +19°C° 0 mm 4 mps 762 mmHg 56%
    19:00 +17°C° 0 mm 4 mps 762 mmHg 66%
    20:00 +17°C° 0 mm 4 mps 762 mmHg 70%
    21:00 +15°C° 0 mm 4 mps 762 mmHg 74%
    22:00 +15°C° 0 mm 4 mps 763 mmHg 77%
    23:00 +15°C° 0 mm 4 mps 762 mmHg 78%

    20 July, Friday

    Time Temperature Precipitation Wind Pressure Humidity
    00:00 +14°C° 0 mm 4 mps 762 mmHg 79%
    01:00 +14°C° 0 mm 4 mps 762 mmHg 80%
    02:00 +14°C° 0 mm 4 mps 761 mmHg 81%
    03:00 +13°C° 0 mm 4 mps 761 mmHg 82%
    04:00 +13°C° 0 mm 3 mps 761 mmHg 83%
    05:00 +13°C° 0 mm 3 mps 761 mmHg 83%
    06:00 +13°C° 0 mm 3 mps 761 mmHg 83%
    07:00 +13°C° 0 mm 3 mps 761 mmHg 82%
    08:00 +17°C° 0 mm 4 mps 761 mmHg 73%
    09:00 +19°C° 0 mm 5 mps 761 mmHg 63%
    10:00 +21°C° 0 mm 6 mps 761 mmHg 54%
    11:00 +21°C° 0 mm 6 mps 760 mmHg 58%
    12:00 +20°C° 0 mm 6 mps 759 mmHg 62%
    13:00 +20°C° 0 mm 5 mps 759 mmHg 65%
    14:00 +20°C° 0 mm 5 mps 758 mmHg 63%
    15:00 +21°C° 0 mm 5 mps 758 mmHg 61%
    16:00 +21°C° 0 mm 5 mps 758 mmHg 59%
    17:00 +20°C° 0 mm 5 mps 758 mmHg 61%
    18:00 +18°C° 0 mm 4 mps 759 mmHg 64%
    19:00 +17°C° 0 mm 4 mps 759 mmHg 66%
    20:00 +15°C° 0 mm 4 mps 760 mmHg 61%
    21:00 +14°C° 0 mm 4 mps 761 mmHg 56%
    22:00 +13°C° 0 mm 5 mps 762 mmHg 51%
    23:00 +12°C° 0 mm 5 mps 762 mmHg 52%

    21 July, Saturday

    Time Temperature Precipitation Wind Pressure Humidity
    00:00 +10°C° 0 mm 5 mps 762 mmHg 52%
    01:00 +9°C° 0 mm 5 mps 763 mmHg 53%
    02:00 +10°C° 0 mm 4 mps 763 mmHg 54%
    03:00 +8°C° 0 mm 4 mps 763 mmHg 55%
    04:00 +7°C° 0 mm 4 mps 763 mmHg 56%
    05:00 +7°C° 0 mm 4 mps 764 mmHg 57%
    06:00 +7°C° 0 mm 3 mps 764 mmHg 58%
    07:00 +7°C° 0 mm 3 mps 765 mmHg 58%
    08:00 +9°C° 0 mm 3 mps 765 mmHg 49%
    09:00 +12°C° 0 mm 3 mps 765 mmHg 40%
    10:00 +16°C° 0 mm 3 mps 765 mmHg 30%
    11:00 +17°C° 0 mm 3 mps 764 mmHg 29%
    12:00 +18°C° 0 mm 3 mps 764 mmHg 27%
    13:00 +19°C° 0 mm 3 mps 763 mmHg 25%
    14:00 +19°C° 0 mm 3 mps 763 mmHg 28%
    15:00 +19°C° 0 mm 3 mps 763 mmHg 30%
    16:00 +18°C° 0 mm 3 mps 762 mmHg 33%
    17:00 +16°C° 0 mm 2 mps 763 mmHg 41%
    18:00 +15°C° 0 mm 2 mps 763 mmHg 50%
    19:00 +13°C° 0 mm 2 mps 764 mmHg 58%
    20:00 +12°C° 0 mm 2 mps 764 mmHg 62%
    21:00 +12°C° 0 mm 2 mps 765 mmHg 65%
    22:00 +10°C° 0 mm 2 mps 765 mmHg 68%
    23:00 +10°C° 0 mm 2 mps 765 mmHg 69%

    22 July, Sunday

    Time Temperature Precipitation Wind Pressure Humidity
    00:00 +9°C° 0 mm 2 mps 765 mmHg 71%
    01:00 +8°C° 0 mm 2 mps 765 mmHg 72%
    02:00 +8°C° 0 mm 3 mps 765 mmHg 71%
    03:00 +8°C° 0 mm 3 mps 764 mmHg 70%
    04:00 +8°C° 0 mm 3 mps 764 mmHg 69%
    05:00 +7°C° 0 mm 3 mps 765 mmHg 68%
    06:00 +7°C° 0 mm 3 mps 765 mmHg 67%
    07:00 +7°C° 0 mm 3 mps 765 mmHg 67%
    08:00 +12°C° 0 mm 2 mps 765 mmHg 57%
    09:00 +15°C° 0 mm 2 mps 765 mmHg 47%
    10:00 +18°C° 0 mm 2 mps 765 mmHg 36%
    11:00 +19°C° 0 mm 2 mps 764 mmHg 34%
    12:00 +21°C° 0 mm 1 mps 763 mmHg 31%
    13:00 +23°C° 0 mm 1 mps 763 mmHg 29%
    14:00 +22°C° 0 mm 1 mps 762 mmHg 31%
    15:00 +21°C° 0 mm 2 mps 762 mmHg 33%
    16:00 +20°C° 0 mm 2 mps 762 mmHg 35%
    17:00 +18°C° 0 mm 2 mps 763 mmHg 47%
    18:00 +16°C° 0 mm 2 mps 763 mmHg 58%
    19:00 +14°C° 0 mm 2 mps 763 mmHg 69%
    20:00 +14°C° 0 mm 2 mps 764 mmHg 72%
    21:00 +13°C° 0 mm 1 mps 764 mmHg 76%
    22:00 +13°C° 0 mm 1 mps 764 mmHg 79%
    23:00 +12°C° 0 mm 1 mps 764 mmHg 81%
    Show more